This demonstration page uses our WeatherBlox Daily Observations layout. Learn more.

41.86663, -103.66717

Hourly Observations for December 16, 2019

Temp ( °F °C ) Dew Point ( °F °C ) Humidity (%) Winds ( mph kmh ) Pressure ( in mb ) Visibility ( mi km ) Precip ( " mm )
12:53 am 00:53 Clear 9 -12.8 6 -14.4 88 88 NW 10 17 30.16 1021 10 16.0934 0 0
1:53 am 01:53 Clear 10 -12.2 6 -14.4 84 84 NW 9 15 30.18 1022 10 16.0934 0 0
2:53 am 02:53 Clear 10 -12.2 6 -14.4 84 84 NW 12 19 30.19 1022 10 16.0934 0 0
3:53 am 03:53 Clear 9 -12.8 5 -15 84 84 NW 12 19 30.23 1024 10 16.0934 0 0
4:53 am 04:53 Clear 7 -13.9 4 -15.6 87 87 NW 13 20 30.27 1025 10 16.0934 0 0
5:53 am 05:53 Clear 7 -13.9 3 -16.1 84 84 NW 9 15 30.29 1026 10 16.0934 0 0
6:53 am 06:53 Clear 6 -14.4 3 -16.1 87 87 NW 9 15 30.33 1027 10 16.0934 0 0
7:53 am 07:53 Sunny 7 -13.9 3 -16.1 84 84 NW 10 17 30.34 1028 10 16.0934 0 0
8:53 am 08:53 Sunny 12 -11.1 6 -14.4 77 77 WNW 8 13 30.36 1028 10 16.0934 0 0
9:53 am 09:53 Sunny 17 -8.3 9 -12.8 70 70 WNW 8 13 30.35 1028 10 16.0934 0 0
10:53 am 10:53 Sunny 20 -6.7 12 -11.1 71 71 NW 9 15 30.35 1028 10 16.0934 0 0
11:53 am 11:53 Sunny 24 -4.4 14 -10 65 65 WNW 12 19 30.33 1027 10 16.0934 0 0
12:53 pm 12:53 Sunny 27 -2.8 16 -8.9 63 63 NW 10 17 30.32 1027 10 16.0934 0 0
1:53 pm 13:53 Sunny 29 -1.7 16 -8.9 58 58 WNW 14 22 30.32 1027 10 16.0934 0 0
2:53 pm 14:53 Sunny 29 -1.7 17 -8.3 61 61 WNW 13 20 30.33 1027 10 16.0934 0 0
3:53 pm 15:53 Sunny 26 -3.3 16 -8.9 66 66 W 13 20 30.36 1028 10 16.0934 0 0
4:53 pm 16:53 Clear 23 -5 11 -11.7 60 60 W 14 22 30.4 1030 10 16.0934 0 0
5:53 pm 17:53 Clear 19 -7.2 10 -12.2 68 68 W 9 15 30.44 1031 10 16.0934 0 0
6:53 pm 18:53 Clear 17 -8.3 9 -12.8 70 70 WNW 8 13 30.46 1032 10 16.0934 0 0
7:53 pm 19:53 Clear 12 -11.1 7 -13.9 80 80 WNW 7 11 30.49 1032 10 16.0934 0 0
8:53 pm 20:53 Clear 9 -12.8 5 -15 84 84 NNW 3 6 30.48 1032 10 16.0934 0 0
9:53 pm 21:53 Clear 6 -14.4 3 -16.1 87 87 NNW 5 7 30.48 1032 10 16.0934 0 0
10:53 pm 22:53 Clear 6 -14.4 2 -16.7 83 83 NW 3 6 30.48 1032 10 16.0934 0 0
11:53 pm 23:53 Clear 6 -14.4 2 -16.7 83 83 NW 6 9 30.47 1032 10 16.0934 0 0

Powered by AerisWeather